Location: Coupvray
(48.8929°N, 2.7967°E)
Time: 23:33:42
(UTC+00:00)

Cosmos 1241 Rocket - Pass Details

Date: 31 October 2020
Orbit: 929 x 1018 km, 65.8° (Epoch: 28 November)

Event Time Altitude Azimuth Distance (km) Brightness Sun altitude
Rises 18:42:25 0° 277° (W) 3,677 9.0 -22.3°
Reaches altitude 10° 18:45:41 10° 293° (WNW) 2,748 7.8 -22.8°
Maximum altitude 18:50:29 21° 342° (NNW) 2,068 6.4 -23.6°
Enters shadow 18:54:53 12° 27° (NNE) 2,679 6.6 -24.3°
